Home   Weather   Brattleboro   Past weeks

Flag for USA Past Weather in Brattleboro, Vermont, USA — Yesterday and Last 2 Weeks

Now
49 °F

Clear.


Feels Like: 48 °F
Forecast: 46 / 66 °F
Wind: 3 mph from North

Location: Keene / Dillant

Current Time: Sep 29, 2016 at 6:23:12 AM

Latest Report: Sep 29, 2016 at 5:56 AM


Visibility: 10 mi

Pressure: 30.51 "Hg

Humidity: 90%

Dew Point: 46 °F

Location of BrattleboroLocation

Past Weather in Brattleboro — Graph

°F

Brattleboro Temperature Yesterday

Maximum temperature yesterday: 57 °F (at 8:56 AM)
Minimum temperature yesterday: 46 °F (at 12:56 AM)
Average temperature yesterday: 52 °F

High & Low Weather Summary for the Past Weeks

 TemperatureHumidityPressure
High83 °F (Sep 22, 1:56 PM)100% (Sep 14, 4:56 AM)30.48 "Hg (Sep 14, 4:56 AM)
Low32 °F (Sep 26, 3:56 AM)30% (Sep 16, 2:56 PM)29.95 "Hg (Sep 27, 1:56 PM)
Average59 °F81%30.19 "Hg
* Reported Sep 14 4:56 AM — Sep 29 4:56 AM, Brattleboro, Weather by CustomWeather, © 2016

Note: Actual official high and low records may vary slightly from our data, if they occured in-between our weather recording intervals... More about our weather records

Advertising

Brattleboro Weather History for the Previous 24 Hours

Scroll right to see more
 ConditionsComfort  
Time TempWeatherWind HumidityBarometerVisibility
4:56 AM
Thu, Sep 29
52 °FPassing clouds.5 mph83%30.48 "Hg10 mi
3:56 AM53 °FOvercast.6 mph83%30.47 "Hg10 mi
2:56 AM54 °FOvercast.3 mph80%30.45 "Hg10 mi
1:56 AM54 °FOvercast.5 mph83%30.46 "Hg10 mi
12:56 AM51 °FOvercast.No wind92%30.46 "Hg10 mi
11:56 PM
Wed, Sep 28
47 °FPassing clouds.No wind100%30.45 "Hg10 mi
10:56 PM48 °FPassing clouds.No wind96%30.45 "Hg10 mi
9:56 PM50 °FPassing clouds.No wind93%30.43 "Hg10 mi
8:56 PM53 °FOvercast.No wind86%30.41 "Hg10 mi
7:56 PM54 °FOvercast.No wind80%30.40 "Hg10 mi
6:56 PM55 °FOvercast.5 mph74%30.37 "Hg10 mi
5:56 PM55 °FOvercast.No wind77%30.37 "Hg10 mi
4:56 PM55 °FMostly cloudy.6 mph80%30.36 "Hg10 mi
3:56 PM57 °FOvercast.7 mph78%30.34 "Hg7 mi
2:56 PM57 °FMostly cloudy.10 mph78%30.32 "Hg10 mi
1:56 PM56 °FMostly cloudy.5 mph84%30.33 "Hg10 mi
12:56 PM56 °FMostly cloudy.8 mph84%30.33 "Hg10 mi
11:56 AM57 °FOvercast.8 mph83%30.32 "Hg10 mi
10:56 AM57 °FOvercast.3 mph83%30.31 "Hg10 mi
9:56 AM57 °FOvercast.No wind87%30.30 "Hg10 mi
8:56 AM57 °FOvercast.3 mph87%30.27 "Hg10 mi
7:56 AM52 °FPartly sunny.No wind100%30.25 "Hg10 mi
6:56 AM50 °FMostly cloudy.No wind96%30.22 "Hg10 mi
Weather by CustomWeather, © 2016

See weather overviewHow to use our weather pages